Location: Roc des P�zouls
(43.9667°N, 3.5500°E)
Time: 18:07:37
(UTC+00:00)

Lacrosse 5 rocket - Pass Details

Date: 14 November 2019
Orbit: 461 x 637 km, 57.0° (Epoch: 14 December)

Event Time Altitude Azimuth Distance (km) Brightness Sun altitude
Exits shadow 05:26:44 - 338° (NNW) 1,750 3.6 -13.1°
Reaches altitude 10° 05:27:28 10° 348° (NNW) 1,626 3.5 -13.0°
Maximum altitude 05:28:42 11° 8° (N) 1,539 3.5 -12.7°
Drops below altitude 10° 05:29:55 10° 28° (NNE) 1,617 3.9 -12.5°
Sets 05:33:25 0° 64° (ENE) 2,488 5.5 -11.9°
